Time,TemperatureF,DewpointF,PressureIn,WindDirection,WindDirectionDegrees,WindSpeedMPH,WindSpeedGustMPH,Humidity,HourlyPrecipIn,Conditions,Clouds,dailyrainin,SoftwareType,DateUTC
2013-01-29 00:10:00,60.4,55.2,29.90,SE,135,1.7,-999.0,83,-99.99,,,0.00,Acu-Link.com,2013-01-29 06:10:00,
2013-01-29 00:25:00,60.3,55.8,29.91,South,180,3.2,-999.0,85,-99.99,,,0.00,Acu-Link.com,2013-01-29 06:25:00,
2013-01-29 00:40:00,60.4,55.9,29.91,SE,135,4.2,-999.0,85,-99.99,,,0.00,Acu-Link.com,2013-01-29 06:40:00,
2013-01-29 00:55:00,60.4,55.9,29.90,SSE,157,4.2,-999.0,85,-99.99,,,0.00,Acu-Link.com,2013-01-29 06:55:00,
2013-01-29 01:10:00,60.4,55.9,29.89,SE,135,3.2,-999.0,85,-99.99,,,0.00,Acu-Link.com,2013-01-29 07:10:00,
2013-01-29 01:25:00,60.3,56.1,29.89,ESE,112,2.2,-999.0,86,-99.99,,,0.00,Acu-Link.com,2013-01-29 07:25:00,
2013-01-29 01:40:00,60.4,56.2,29.88,SE,135,3.2,-999.0,86,-99.99,,,0.00,Acu-Link.com,2013-01-29 07:40:00,
2013-01-29 01:55:00,61.0,56.5,29.87,South,180,4.7,-999.0,85,-99.99,,,0.00,Acu-Link.com,2013-01-29 07:55:00,
2013-01-29 02:10:00,60.4,56.2,29.87,SSE,157,3.7,-999.0,86,-99.99,,,0.00,Acu-Link.com,2013-01-29 08:10:00,
2013-01-29 02:26:00,60.1,55.9,29.86,SE,135,3.2,-999.0,86,-99.99,,,0.00,Acu-Link.com,2013-01-29 08:26:00,
2013-01-29 02:41:00,59.9,56.0,29.86,SE,135,3.2,-999.0,87,-99.99,,,0.00,Acu-Link.com,2013-01-29 08:41:00,
2013-01-29 02:56:00,59.7,56.1,29.85,ESE,112,3.7,-999.0,88,-99.99,,,0.00,Acu-Link.com,2013-01-29 08:56:00,
2013-01-29 03:15:00,59.9,56.3,29.85,ESE,112,3.2,-999.0,88,-99.99,,,0.00,Acu-Link.com,2013-01-29 09:15:00,
2013-01-29 03:30:00,59.7,56.1,29.83,SSE,157,3.7,-999.0,88,-99.99,,,0.00,Acu-Link.com,2013-01-29 09:30:00,
2013-01-29 03:45:00,59.7,56.1,29.84,SE,135,2.7,-999.0,88,-99.99,,,0.00,Acu-Link.com,2013-01-29 09:45:00,
2013-01-29 04:01:00,59.7,56.5,29.83,SSE,157,0.0,-999.0,89,-99.99,,,0.00,Acu-Link.com,2013-01-29 10:01:00,
2013-01-29 04:16:00,59.9,56.6,29.83,SE,135,2.2,-999.0,89,-99.99,,,0.00,Acu-Link.com,2013-01-29 10:16:00,
2013-01-29 04:31:00,61.0,57.4,29.84,SE,135,5.3,-999.0,88,-99.99,,,0.00,Acu-Link.com,2013-01-29 10:31:00,
2013-01-29 04:46:00,61.5,57.6,29.85,SSE,157,4.7,-999.0,87,-99.99,,,0.00,Acu-Link.com,2013-01-29 10:46:00,
2013-01-29 05:01:00,61.9,57.7,29.86,SSE,157,2.7,-999.0,86,-99.99,,,0.00,Acu-Link.com,2013-01-29 11:01:00,
2013-01-29 05:16:00,62.2,58.0,29.86,SSE,157,3.7,-999.0,86,-99.99,,,0.00,Acu-Link.com,2013-01-29 11:16:00,
2013-01-29 05:31:00,62.2,57.6,29.87,West,270,2.7,-999.0,85,-99.99,,,0.00,Acu-Link.com,2013-01-29 11:31:00,
2013-01-29 05:47:00,62.2,57.6,29.86,South,180,2.7,-999.0,85,-99.99,,,0.00,Acu-Link.com,2013-01-29 11:47:00,
2013-01-29 06:02:00,62.4,57.8,29.85,SSE,157,2.7,-999.0,85,-99.99,,,0.00,Acu-Link.com,2013-01-29 12:02:00,
2013-01-29 06:17:00,62.4,57.8,29.86,SE,135,4.2,-999.0,85,-99.99,,,0.00,Acu-Link.com,2013-01-29 12:17:00,
2013-01-29 06:32:00,62.2,57.6,29.87,ESE,112,2.7,-999.0,85,-99.99,,,0.00,Acu-Link.com,2013-01-29 12:32:00,
2013-01-29 06:47:00,62.2,57.6,29.86,SSW,202,2.7,-999.0,85,-99.99,,,0.00,Acu-Link.com,2013-01-29 12:47:00,
2013-01-29 07:02:00,62.2,57.6,29.85,South,180,2.7,-999.0,85,-99.99,,,0.00,Acu-Link.com,2013-01-29 13:02:00,
2013-01-29 07:17:00,62.2,57.6,29.84,West,270,3.7,-999.0,85,-99.99,,,0.00,Acu-Link.com,2013-01-29 13:17:00,
2013-01-29 07:32:00,62.4,57.8,29.85,SE,135,3.2,-999.0,85,-99.99,,,0.00,Acu-Link.com,2013-01-29 13:32:00,
2013-01-29 07:47:00,62.6,58.0,29.84,SSE,157,2.7,-999.0,85,-99.99,,,0.00,Acu-Link.com,2013-01-29 13:47:00,
2013-01-29 08:03:00,63.1,58.2,29.85,SSE,157,3.2,-999.0,84,-99.99,,,0.00,Acu-Link.com,2013-01-29 14:03:00,
2013-01-29 08:18:00,63.9,58.6,29.82,SSE,157,2.7,-999.0,83,-99.99,,,0.00,Acu-Link.com,2013-01-29 14:18:00,
2013-01-29 08:33:00,64.0,58.4,29.82,South,180,2.7,-999.0,82,-99.99,,,0.00,Acu-Link.com,2013-01-29 14:33:00,
2013-01-29 08:49:00,64.8,58.8,29.81,SSE,157,4.2,-999.0,81,-99.99,,,0.00,Acu-Link.com,2013-01-29 14:49:00,
2013-01-29 09:04:00,66.0,59.3,29.80,SSE,157,4.2,-999.0,79,-99.99,,,0.00,Acu-Link.com,2013-01-29 15:04:00,
2013-01-29 09:19:00,67.1,60.0,29.80,ESE,112,5.3,-999.0,78,-99.99,,,0.00,Acu-Link.com,2013-01-29 15:19:00,
2013-01-29 09:34:00,67.3,59.5,29.80,SE,135,5.8,-999.0,76,-99.99,,,0.00,Acu-Link.com,2013-01-29 15:34:00,
2013-01-29 09:49:00,67.3,59.5,29.81,SE,135,5.8,-999.0,76,-99.99,,,0.00,Acu-Link.com,2013-01-29 15:49:00,
2013-01-29 10:04:00,67.8,59.6,29.79,SSE,157,4.2,-999.0,75,-99.99,,,0.00,Acu-Link.com,2013-01-29 16:04:00,
2013-01-29 10:19:00,68.4,59.8,29.78,SSE,157,4.2,-999.0,74,-99.99,,,0.00,Acu-Link.com,2013-01-29 16:19:00,
2013-01-29 10:34:00,69.1,59.7,29.77,SSE,157,4.7,-999.0,72,-99.99,,,0.00,Acu-Link.com,2013-01-29 16:34:00,
2013-01-29 10:49:00,69.4,60.0,29.77,SSE,157,6.3,-999.0,72,-99.99,,,0.00,Acu-Link.com,2013-01-29 16:49:00,
2013-01-29 11:05:00,69.4,60.0,29.75,SW,225,5.8,-999.0,72,-99.99,,,0.00,Acu-Link.com,2013-01-29 17:05:00,
2013-01-29 11:20:00,70.3,60.0,29.74,SSE,157,4.2,-999.0,70,-99.99,,,0.00,Acu-Link.com,2013-01-29 17:20:00,
2013-01-29 11:35:00,71.2,59.7,29.73,South,180,6.8,-999.0,67,-99.99,,,0.00,Acu-Link.com,2013-01-29 17:35:00,
2013-01-29 11:50:00,71.4,59.0,29.71,NNE,22,4.2,-999.0,65,-99.99,,,0.00,Acu-Link.com,2013-01-29 17:50:00,
2013-01-29 12:05:00,71.6,59.2,29.71,ENE,67,5.8,-999.0,65,-99.99,,,0.00,Acu-Link.com,2013-01-29 18:05:00,
2013-01-29 12:20:00,73.6,59.3,29.69,East,90,7.8,-999.0,61,-99.99,,,0.00,Acu-Link.com,2013-01-29 18:20:00,
2013-01-29 12:35:00,73.0,58.7,29.67,SE,135,8.3,-999.0,61,-99.99,,,0.00,Acu-Link.com,2013-01-29 18:35:00,
2013-01-29 12:50:00,74.5,58.7,29.66,ESE,112,4.2,-999.0,58,-99.99,,,0.00,Acu-Link.com,2013-01-29 18:50:00,
2013-01-29 13:05:00,74.1,58.8,29.65,SSE,157,6.3,-999.0,59,-99.99,,,0.00,Acu-Link.com,2013-01-29 19:05:00,
2013-01-29 13:21:00,73.6,59.3,29.64,South,180,5.3,-999.0,61,-99.99,,,0.00,Acu-Link.com,2013-01-29 19:21:00,
2013-01-29 13:36:00,74.8,58.5,29.62,South,180,4.7,-999.0,57,-99.99,,,0.00,Acu-Link.com,2013-01-29 19:36:00,
2013-01-29 13:51:00,74.1,58.8,29.61,SSE,157,3.7,-999.0,59,-99.99,,,0.00,Acu-Link.com,2013-01-29 19:51:00,
2013-01-29 14:06:00,73.8,58.6,29.60,SSE,157,6.3,-999.0,59,-99.99,,,0.00,Acu-Link.com,2013-01-29 20:06:00,
2013-01-29 14:21:00,76.3,58.9,29.58,SE,135,2.2,-999.0,55,-99.99,,,0.00,Acu-Link.com,2013-01-29 20:21:00,
2013-01-29 14:36:00,75.6,58.8,29.57,ESE,112,4.7,-999.0,56,-99.99,,,0.00,Acu-Link.com,2013-01-29 20:36:00,
2013-01-29 14:52:00,76.1,58.2,29.57,South,180,5.3,-999.0,54,-99.99,,,0.00,Acu-Link.com,2013-01-29 20:52:00,
2013-01-29 15:07:00,77.2,58.7,29.56,South,180,4.7,-999.0,53,-99.99,,,0.00,Acu-Link.com,2013-01-29 21:07:00,
2013-01-29 15:22:00,77.0,58.5,29.56,SSW,202,4.2,-999.0,53,-99.99,,,0.00,Acu-Link.com,2013-01-29 21:22:00,
2013-01-29 15:37:00,76.1,58.2,29.55,SSE,157,6.3,-999.0,54,-99.99,,,0.00,Acu-Link.com,2013-01-29 21:37:00,
2013-01-29 15:52:00,75.4,58.1,29.54,ESE,112,8.3,-999.0,55,-99.99,,,0.00,Acu-Link.com,2013-01-29 21:52:00,
2013-01-29 16:07:00,75.6,58.3,29.52,SE,135,5.8,-999.0,55,-99.99,,,0.00,Acu-Link.com,2013-01-29 22:07:00,
2013-01-29 16:23:00,75.4,58.1,29.53,SSE,157,9.4,-999.0,55,-99.99,,,0.00,Acu-Link.com,2013-01-29 22:23:00,
2013-01-29 16:38:00,75.2,57.4,29.53,SE,135,7.3,-999.0,54,-99.99,,,0.00,Acu-Link.com,2013-01-29 22:38:00,
2013-01-29 16:53:00,74.8,57.5,29.54,WSW,247,6.3,-999.0,55,-99.99,,,0.00,Acu-Link.com,2013-01-29 22:53:00,
2013-01-29 17:08:00,74.5,57.8,29.53,SSE,157,6.8,-999.0,56,-99.99,,,0.00,Acu-Link.com,2013-01-29 23:08:00,
2013-01-29 17:23:00,74.1,57.9,29.52,SE,135,3.7,-999.0,57,-99.99,,,0.00,Acu-Link.com,2013-01-29 23:23:00,
2013-01-29 17:38:00,73.8,58.1,29.51,ESE,112,6.8,-999.0,58,-99.99,,,0.00,Acu-Link.com,2013-01-29 23:38:00,
2013-01-29 17:53:00,73.6,57.9,29.49,WSW,247,5.3,-999.0,58,-99.99,,,0.00,Acu-Link.com,2013-01-29 23:53:00,
2013-01-29 18:08:00,73.4,58.2,29.50,SSE,157,6.8,-999.0,59,-99.99,,,0.00,Acu-Link.com,2013-01-30 00:08:00,
2013-01-29 18:23:00,73.2,58.0,29.51,SE,135,3.7,-999.0,59,-99.99,,,0.00,Acu-Link.com,2013-01-30 00:23:00,
2013-01-29 18:38:00,73.6,58.8,29.49,SSW,202,6.8,-999.0,60,-99.99,,,0.00,Acu-Link.com,2013-01-30 00:38:00,
2013-01-29 18:54:00,72.9,58.6,29.48,SE,135,5.3,-999.0,61,-99.99,,,0.00,Acu-Link.com,2013-01-30 00:54:00,
2013-01-29 19:09:00,72.9,59.1,29.44,ESE,112,7.8,-999.0,62,-99.99,,,0.00,Acu-Link.com,2013-01-30 01:09:00,
2013-01-29 19:24:00,72.9,59.1,29.44,SSE,157,5.3,-999.0,62,-99.99,,,0.00,Acu-Link.com,2013-01-30 01:24:00,
2013-01-29 19:39:00,72.9,59.6,29.43,SSE,157,8.3,-999.0,63,-99.99,,,0.00,Acu-Link.com,2013-01-30 01:39:00,
2013-01-29 19:54:00,73.2,59.8,29.42,SSE,157,10.9,-999.0,63,-99.99,,,0.00,Acu-Link.com,2013-01-30 01:54:00,
2013-01-29 20:09:00,73.6,60.7,29.42,South,180,6.3,-999.0,64,-99.99,,,0.00,Acu-Link.com,2013-01-30 02:09:00,
2013-01-29 20:25:00,72.0,61.7,29.44,South,180,8.9,-999.0,70,-99.99,,,0.00,Acu-Link.com,2013-01-30 02:25:00,
2013-01-29 20:40:00,71.8,61.5,29.44,ESE,112,10.9,-999.0,70,-99.99,,,0.01,Acu-Link.com,2013-01-30 02:40:00,
2013-01-29 20:55:00,69.8,62.3,29.38,SE,135,4.7,-999.0,77,-99.99,,,0.02,Acu-Link.com,2013-01-30 02:55:00,
2013-01-29 21:10:00,69.8,62.3,29.40,SSW,202,5.3,-999.0,77,-99.99,,,0.03,Acu-Link.com,2013-01-30 03:10:00,
2013-01-29 21:25:00,70.2,62.3,29.38,ENE,67,7.3,-999.0,76,-99.99,,,0.03,Acu-Link.com,2013-01-30 03:25:00,
2013-01-29 21:40:00,70.2,61.9,29.36,South,180,6.3,-999.0,75,-99.99,,,0.03,Acu-Link.com,2013-01-30 03:40:00,
2013-01-29 21:55:00,70.5,62.2,29.34,SW,225,7.3,-999.0,75,-99.99,,,0.03,Acu-Link.com,2013-01-30 03:55:00,
2013-01-29 22:10:00,70.9,61.8,29.33,ESE,112,7.3,-999.0,73,-99.99,,,0.03,Acu-Link.com,2013-01-30 04:10:00,
2013-01-29 22:26:00,71.2,61.7,29.33,SSE,157,9.4,-999.0,72,-99.99,,,0.03,Acu-Link.com,2013-01-30 04:26:00,
2013-01-29 22:41:00,71.8,61.9,29.33,East,90,10.9,-999.0,71,-99.99,,,0.03,Acu-Link.com,2013-01-30 04:41:00,
2013-01-29 22:56:00,72.0,62.1,29.31,South,180,12.5,-999.0,71,-99.99,,,0.03,Acu-Link.com,2013-01-30 04:56:00,
2013-01-29 23:11:00,70.9,62.2,29.29,SE,135,5.3,-999.0,74,-99.99,,,0.03,Acu-Link.com,2013-01-30 05:11:00,
2013-01-29 23:26:00,70.9,62.6,29.32,SE,135,8.9,-999.0,75,-99.99,,,0.03,Acu-Link.com,2013-01-30 05:26:00,
2013-01-29 23:42:00,70.9,62.2,29.32,NNE,22,5.8,-999.0,74,-99.99,,,0.04,Acu-Link.com,2013-01-30 05:42:00,
2013-01-29 23:57:00,69.3,61.8,29.33,SSW,202,2.7,-999.0,77,-99.99,,,0.04,Acu-Link.com,2013-01-30 05:57:00,